Whiteman AFB, MO

7:01 AM CST on January 22, 2018 (GMT -0600)
Whiteman Air Force Base

Weather History for KSZL - February, 2013

Change the Weather History Date:

Saturday, February 2, 2013

  Actual Average Record
Temperature  
Mean Temperature 34 °F -  
Max Temperature 44 °F 40 °F 69 °F (2003)
Min Temperature 25 °F 23 °F 0 °F (2011)
Degree Days  
Heating Degree Days 30    
Moisture  
Dew Point 25 °F    
Average Humidity 70    
Maximum Humidity 95    
Minimum Humidity 57    
Precipitation  
Precipitation 0.00 in - - ()
Sea Level Pressure  
Sea Level Pressure 30.15 in    
Wind  
Wind Speed 9 mph (West)    
Max Wind Speed 17 mph    
Max Gust Speed 25 mph    
Visibility 10 miles    
Events Rain    
Averages and records for this station are not official NWS values.
T = Trace of Precipitation, MM = Missing Value Source: NWS Daily Summary

Daily Weather History Graph

Daily Weather History Graph

Search for Another Location

Airport or City:

Trip Planner

Search our weather history database for the weather conditions in past years. The results will help you decide how hot, cold, wet, or windy it might be!

Date:

Astronomy

Feb. 02, 2013 Rise Set
Actual Time 7:18 AM CST 5:37 PM CST
Civil Twilight 6:50 AM CST 6:05 PM CST
Nautical Twilight 6:19 AM CST 6:37 PM CST
Astronomical Twilight 5:48 AM CST 7:08 PM CST
Moon No Moon Rise 10:34 AM CST (2/2)
Length of Visible Light 11h 14m
Length of Day
10h 18m
Waning Gibbous, 59% of the Moon is Illuminated
Feb 2
Waning Gibbous
Feb 3
Last Quarter
Feb 10
New
Feb 17
First Quarter
Feb 25
Full

Hourly Weather History & Observations

Time (CST) Temp. Windchill Dew Point Humidity Pressure Visibility Wind Dir Wind Speed Gust Speed Precip Events Conditions
12:55 AM 26.1 °F 16.8 °F 18.7 °F 74% 30.17 in 10.0 mi SSW 9.2 mph - N/A   Clear
1:55 AM 26.8 °F 17.7 °F 17.8 °F 69% 30.16 in 10.0 mi SSW 9.2 mph - N/A   Clear
2:55 AM 25.7 °F 16.4 °F 18.5 °F 74% 30.15 in 10.0 mi SSW 9.2 mph - N/A   Mostly Cloudy
3:55 AM 28.9 °F 19.8 °F 18.3 °F 65% 30.14 in 10.0 mi SW 10.4 mph - N/A   Overcast
4:55 AM 30.6 °F 21.2 °F 17.8 °F 59% 30.14 in 10.0 mi WSW 11.5 mph - N/A   Overcast
5:55 AM 29.8 °F 20.3 °F 18.0 °F 61% 30.15 in 10.0 mi West 11.5 mph 19.6 mph N/A   Scattered Clouds
6:55 AM 28.8 °F 20.9 °F 18.9 °F 67% 30.17 in 10.0 mi West 8.1 mph - N/A   Overcast
7:55 AM 27.9 °F 20.6 °F 19.8 °F 72% 30.18 in 10.0 mi West 6.9 mph - N/A   Scattered Clouds
8:55 AM 30.2 °F 23.4 °F 20.8 °F 68% 30.20 in 10.0 mi West 6.9 mph - N/A   Clear
9:55 AM 33.4 °F 25.9 °F 22.5 °F 64% 30.22 in 10.0 mi NW 9.2 mph - N/A   Partly Cloudy
10:55 AM 35.8 °F 29.4 °F 24.3 °F 63% 30.22 in 10.0 mi WNW 8.1 mph - N/A   Overcast
11:55 AM 36.7 °F 31.2 °F 24.1 °F 60% 30.22 in 10.0 mi WNW 6.9 mph - N/A   Overcast
12:55 PM 38.3 °F 32.5 °F 24.8 °F 58% 30.19 in 10.0 mi WNW 8.1 mph - N/A   Overcast
1:55 PM 40.3 °F 34.9 °F 26.2 °F 57% 30.19 in 10.0 mi WNW 8.1 mph - N/A   Overcast
2:55 PM 42.8 °F 36.2 °F 28.6 °F 57% 30.18 in 10.0 mi WNW 12.7 mph - N/A   Clear
3:55 PM 42.4 °F 37.5 °F 28.9 °F 59% 30.17 in 10.0 mi WNW 8.1 mph - N/A   Overcast
4:55 PM 39.4 °F 35.2 °F 29.8 °F 69% 30.18 in 10.0 mi North 5.8 mph - N/A   Overcast
5:55 PM 35.2 °F - 28.2 °F 76% 30.16 in 10.0 mi Calm Calm - N/A   Mostly Cloudy
6:55 PM 30.9 °F 27.5 °F 27.9 °F 88% 30.15 in 10.0 mi SSE 3.5 mph - N/A   Clear
7:55 PM 30.4 °F 23.6 °F 28.6 °F 93% 30.14 in 10.0 mi South 6.9 mph - N/A   Mostly Cloudy
8:55 PM 31.3 °F 23.3 °F 30.0 °F 95% 30.10 in 10.0 mi SSW 9.2 mph - N/A   Overcast
9:31 PM 39.2 °F 31.2 °F 33.8 °F 81% 30.08 in 10.0 mi SW 13.8 mph - N/A   Light Drizzle
9:55 PM 41.2 °F 35.0 °F 34.0 °F 76% 30.09 in 10.0 mi West 10.4 mph 19.6 mph 0.00 in Rain Light Rain
10:06 PM 44.6 °F 38.4 °F 33.8 °F 66% 30.07 in 10.0 mi West 12.7 mph 25.3 mph N/A   Mostly Cloudy
10:55 PM 43.3 °F 35.5 °F 32.7 °F 66% 30.09 in 10.0 mi West 17.3 mph - 0.00 in   Overcast
11:55 PM 41.7 °F 35.6 °F 32.9 °F 71% 30.12 in 10.0 mi WNW 10.4 mph - N/A   Scattered Clouds